Dewpoint
33 29 27 26 27 29 29 29 22 25 27 26 26 24 21 20 25 27 27 28 30 31 24 23 21 18 16 14 13 12 11 11 10 10 9 7 6 5 2 0 -1 -2 -3 2 2 4 4 5 3 4 4 3 2 3 4 2 3 3 3 4 4 5 7 9 7 7 6 7 7 5 6 3 5 6 6 5 6 5 4 6 8 8 7 10 10 13
33 27 27 27 27 30 29 25 24 25 28 26 25 23 20 21 22 25 27 27 32 33 25 21 19 17 15 14 13 12 10 9 9 8 7 5 3 2 0 -1 -2 -3 0 0 -1 -0 1 0 4 3 3 6 0 1 1 1 1 3 3 3 3 4 5 8 9 6 6 6 6 4 4 3 5 4 3 4 5 6 8 6 7 7 7 8 8 11
24 22 26 24 26 27 25 25 27 25 25 26 20 21 20 23 23 26 28 30 30 31 24 23 24 17 15 13 13 12 10 6 4 4 3 2 2 1 1 -1 -3 -6 -6 -7 -6 -2 -5 -0 2 1 2 2 2 1 1 2 1 2 1 3 3 3 4 5 9 6 7 8 8 7 5 4 3 7 8 6 7 7 5 5 6 7 8 8 8 9
21 23 23 22 26 26 25 25 26 27 25 20 20 18 16 21 20 18 23 29 29 27 24 25 26 16 13 13 11 9 9 6 4 1 -1 0 -0 -3 -4 -4 -5 -6 -6 -9 -8 -9 -8 -5 -5 -2 -0 1 3 1 0 2 2 1 1 2 3 2 3 3 6 10 7 10 10 10 8 9 6 4 7 7 5 6 6 5 6 6 7 7 8 8
18 21 21 21 23 26 26 25 26 25 22 24 23 16 17 21 23 21 21 26 26 28 27 25 26 22 15 14 12 9 8 6 4 1 0 -0 -0 -1 -1 -2 -5 -7 -7 -8 -9 -7 -8 -7 -6 -4 -1 -1 -0 1 2 2 1 2 -0 2 3 1 3 3 6 7 6 7 8 6 7 7 6 4 2 3 1 4 6 4 5 5 7 8 8 7
19 21 22 22 24 24 26 26 27 26 22 23 25 24 21 23 24 23 24 23 23 22 26 27 17 18 18 20 19 8 7 6 3 2 0 -1 -3 -4 -6 -5 -5 -6 -7 -7 -9 -8 -6 -7 -6 -4 -3 -2 -1 -1 1 1 1 0 -0 0 2 2 1 3 3 6 6 5 6 6 3 2 0 -2 0 0 2 2 3 3 6 6 5 7 8 8
20 17 20 21 23 24 24 22 21 24 21 21 21 24 25 24 24 23 22 20 17 16 24 29 18 13 19 19 19 12 11 7 3 4 -1 -4 -6 -7 -9 -9 -9 -10 -9 -8 -8 -8 -8 -7 -6 -6 -4 -3 -2 -2 -0 0 -0 0 0 -0 1 1 0 5 3 4 7 4 5 7 7 6 4 1 3 3 4 3 5 5 5 4 5 6 7 8
18 16 17 19 22 22 21 20 19 22 21 17 19 22 23 23 22 22 21 18 16 21 25 27 22 18 17 20 20 13 13 10 5 4 -1 -5 -7 -9 -9 -10 -9 -9 -10 -10 -10 -9 -8 -8 -8 -8 -5 -6 -4 -2 -1 1 1 -0 -1 -1 -1 -1 0 -0 3 1 5 4 5 6 6 6 4 5 3 3 4 4 6 4 4 3 4 5 6 7
17 15 15 18 20 20 19 15 15 17 20 17 18 21 22 22 22 22 22 19 18 19 16 23 25 18 18 17 15 14 15 13 11 6 1 -4 -6 -8 -8 -10 -7 -10 -9 -10 -9 -9 -8 -8 -8 -8 -7 -5 -4 -1 -1 -0 -1 -0 -1 -1 -3 -3 -2 -2 0 1 1 5 4 4 3 3 4 5 4 1 2 2 3 5 3 3 3 3 5 6
17 18 14 12 16 17 13 13 14 16 19 17 21 21 18 19 20 22 21 20 20 18 14 22 23 16 14 16 14 14 16 17 13 10 3 -3 -6 -8 -10 -9 -11 -11 -10 -10 -10 -9 -9 -9 -8 -7 -7 -7 -4 -3 -1 -2 -2 -1 -2 -3 -4 -3 -3 -2 -2 -1 0 1 3 4 5 5 3 3 1 0 0 1 2 2 2 2 2 1 2 4
19 22 25 15 11 11 13 15 14 15 18 21 20 19 19 18 18 20 21 20 18 15 15 20 23 19 13 17 17 13 14 16 16 11 3 -1 -5 -9 -10 -9 -11 -14 -12 -11 -10 -9 -9 -9 -9 -9 -9 -8 -6 -4 -4 -2 -3 -3 -3 -4 -5 -4 -4 -4 -3 -1 -1 -0 -0 1 4 4 3 4 4 0 -0 -1 1 0 0 0 1 1 1 2
15 14 13 11 14 11 16 16 18 19 19 19 19 19 19 17 17 19 16 18 14 12 15 16 18 20 13 13 17 14 11 15 15 10 4 -1 -5 -10 -10 -14 -15 -14 -14 -12 -12 -11 -10 -10 -9 -9 -10 -9 -9 -9 -9 -7 -5 -4 -5 -6 -6 -5 -4 -5 -4 -3 -3 -3 -2 -0 2 3 2 2 2 0 -1 -0 -0 -0 -1 -1 -1 -1 2 1
17 16 11 13 16 9 13 16 16 20 17 16 20 20 15 13 14 13 14 13 13 11 13 14 15 17 16 10 15 12 10 5 9 9 5 -2 -6 -10 -12 -11 -12 -13 -12 -15 -16 -16 -16 -17 -15 -12 -12 -11 -10 -16 -9 -9 -10 -9 -8 -6 -7 -7 -5 -6 -6 -4 -4 -4 -4 -4 -2 1 2 1 1 0 -1 -0 -3 -3 -1 -2 -3 -2 0 -0
17 17 14 13 12 9 8 15 15 17 18 17 17 17 14 11 11 10 12 11 10 13 12 15 15 15 18 12 10 11 4 1 5 4 4 -0 -6 -11 -10 -10 -13 -13 -14 -17 -17 -17 -17 -17 -17 -15 -14 -16 -18 -12 -16 -13 -14 -13 -12 -7 -8 -8 -6 -6 -6 -6 -6 -5 -5 -5 -4 -2 -1 -1 -1 -2 -3 -3 -4 -1 -2 -2 -2 -2 -1 0
14 14 16 15 13 5 6 9 12 15 15 15 19 17 16 13 12 9 8 8 10 9 11 12 13 12 15 13 3 -1 -0 1 -0 1 -1 -4 -9 -10 -11 -13 -14 -15 -16 -17 -17 -17 -17 -15 -14 -18 -17 -17 -17 -13 -17 -18 -17 -17 -17 -15 -9 -10 -9 -6 -7 -8 -7 -7 -7 -7 -6 -5 -3 -2 -4 -4 0 -4 -3 -3 -2 -3 -2 -3 -3 -1
18 15 9 6 4 3 4 4 7 12 15 17 19 19 15 15 14 9 6 9 7 8 10 12 11 11 10 5 4 2 -0 0 0 -2 -1 -5 -7 -8 -11 -13 -16 -16 -17 -17 -15 -13 -12 -11 -12 -18 -18 -17 -18 -14 -18 -15 -19 -18 -16 -13 -10 -11 -11 -8 -7 -10 -9 -8 -8 -7 -8 -7 -5 -3 -4 -3 -3 -6 -4 -3 -3 -4 -2 -2 -2 -0
15 15 8 5 7 7 1 5 4 6 15 15 14 14 16 16 15 11 9 8 10 10 8 14 10 10 7 5 5 2 1 -0 1 -1 -2 -4 -7 -11 -13 -15 -16 -16 -17 -17 -17 -17 -17 -17 -18 -18 -18 -17 -14 -18 -18 -17 -16 -16 -17 -18 -17 -14 -13 -13 -9 -12 -12 -10 -10 -9 -9 -8 -7 -8 -6 -7 -6 -6 -5 -4 -4 -5 -3 -2 -3 2
14 13 8 5 4 3 1 4 6 5 12 17 14 14 12 15 17 15 11 9 9 8 9 10 9 8 7 9 3 0 2 0 1 -1 -1 -3 -8 -12 -13 -15 -15 -16 -17 -17 -18 -18 -17 -17 -17 -18 -18 -17 -17 -19 -19 -19 -19 -18 -16 -17 -19 -18 -19 -18 -16 -14 -15 -14 -12 -12 -10 -10 -10 -13 -11 -8 -8 -8 -7 -7 -6 -6 -4 -4 -3 -2
13 10 8 7 2 1 3 7 5 1 7 10 13 15 15 12 12 13 12 9 7 7 8 7 6 6 8 6 6 1 1 2 1 0 -1 -4 -8 -9 -12 -14 -15 -15 -16 -17 -18 -18 -17 -17 -16 -18 -18 -18 -15 -15 -18 -19 -19 -19 -17 -14 -18 -19 -19 -19 -18 -15 -18 -15 -16 -17 -16 -13 -17 -16 -14 -11 -9 -9 -11 -11 -8 -9 -6 -6 -5 -5
10 10 7 5 1 5 6 8 9 8 8 10 11 13 11 14 11 11 12 6 8 6 3 5 2 2 7 7 5 4 2 2 1 -0 -1 -2 -5 -5 -9 -13 -15 -15 -16 -17 -19 -18 -18 -17 -17 -18 -19 -19 -18 -17 -18 -18 -19 -19 -19 -17 -16 -18 -19 -19 -19 -18 -18 -17 -18 -17 -18 -15 -17 -16 -15 -16 -14 -13 -14 -15 -10 -13 -9 -8 -9 -8
10 10 5 5 6 3 5 5 8 9 11 11 14 11 12 10 11 11 9 8 7 4 0 1 1 4 1 3 5 4 3 2 1 -0 -1 -1 -2 -3 -8 -11 -14 -15 -16 -17 -18 -18 -18 -17 -17 -17 -19 -19 -17 -13 -16 -18 -19 -19 -19 -19 -19 -19 -19 -19 -19 -18 -18 -17 -19 -17 -19 -18 -18 -18 -17 -16 -15 -14 -17 -18 -12 -16 -11 -13 -15 -10
5 4 5 3 5 4 2 2 3 1 -0 4 11 12 12 8 8 6 7 9 6 4 3 -1 2 7 6 2 2 3 3 1 1 0 -1 -1 -1 -3 -6 -9 -12 -14 -15 -16 -17 -18 -18 -18 -17 -16 -18 -19 -19 -17 -18 -18 -18 -19 -19 -19 -19 -19 -19 -19 -19 -19 -18 -18 -19 -19 -19 -18 -18 -18 -18 -17 -18 -15 -19 -19 -19 -18 -16 -14 -16 -14
9 4 3 0 4 4 -0 2 3 -0 2 1 3 4 4 5 7 7 3 4 4 6 3 -1 -2 -0 4 3 1 1 1 1 0 -0 -0 -0 -2 -4 -4 -6 -8 -11 -13 -15 -17 -18 -18 -18 -17 -17 -16 -18 -19 -19 -18 -18 -18 -19 -19 -19 -19 -19 -19 -19 -19 -19 -18 -19 -19 -19 -19 -19 -19 -18 -18 -17 -18 -19 -19 -19 -19 -16 -17 -18 -18 -16
12 -2 -3 -3 -4 -1 -5 -3 3 3 1 -1 -2 -1 3 8 8 7 3 3 5 3 2 1 -1 2 6 6 2 2 1 -1 -2 -0 5 5 -2 -3 -4 -5 -7 -9 -12 -13 -16 -17 -18 -18 -18 -17 -15 -18 -18 -19 -18 -18 -18 -19 -19 -19 -19 -19 -19 -19 -19 -19 -19 -19 -19 -19 -19 -19 -19 -19 -18 -18 -18 -19 -19 -19 -19 -18 -17 -18 -17 -17
1 3 0 -8 -7 -8 -7 0 -4 1 0 -1 -1 -1 -3 -0 2 0 -3 -5 2 4 4 1 -2 -1 5 5 3 2 -1 -0 -1 -2 1 4 -1 -3 -4 -6 -8 -9 -11 -12 -15 -17 -17 -18 -18 -17 -16 -18 -18 -18 -18 -18 -18 -19 -19 -19 -19 -19 -19 -18 -18 -20 -19 -19 -19 -19 -19 -19 -19 -19 -18 -17 -18 -19 -19 -19 -19 -18 -18 -18 -17 -18
0 -0 -2 -7 -10 -15 -16 -16 -11 -6 -1 0 -5 -4 -6 2 2 4 3 1 1 -4 7 1 -1 4 3 1 4 2 -0 0 -0 -1 -1 1 1 -2 -4 -5 -8 -10 -11 -12 -14 -16 -17 -17 -17 -17 -16 -17 -17 -18 -18 -18 -18 -18 -19 -19 -18 -19 -19 -18 -18 -20 -19 -19 -19 -19 -19 -19 -19 -19 -18 -17 -18 -19 -19 -19 -19 -19 -19 -17 -17 -18
-6 -7 -4 -6 -6 -8 -10 -6 -3 2 -2 -1 -1 -3 -3 -6 -2 0 3 1 2 -0 1 6 5 2 4 4 4 6 4 2 2 -0 1 0 -1 -2 -4 -4 -6 -9 -11 -12 -14 -16 -17 -17 -17 -17 -17 -17 -17 -18 -18 -18 -18 -18 -19 -19 -18 -19 -19 -18 -18 -20 -19 -19 -19 -19 -19 -20 -19 -19 -18 -18 -18 -19 -19 -19 -19 -19 -19 -17 -18 -18
-6 -5 -11 -11 -10 -11 -13 -10 -9 -2 -2 -7 -4 -4 -6 -5 -4 1 1 0 6 1 -2 4 4 3 5 6 7 6 5 4 4 4 1 5 2 2 -0 -3 2 -7 -9 -12 -13 -15 -16 -17 -17 -17 -17 -17 -17 -17 -17 -18 -18 -18 -18 -19 -19 -19 -18 -18 -18 -20 -19 -19 -19 -19 -20 -20 -19 -19 -18 -17 -18 -19 -20 -20 -19 -19 -18 -17 -18 -18
-6 -5 -13 -8 -9 -8 -9 -8 -12 -9 -6 -7 -7 -6 -6 -8 -7 -0 3 2 4 -0 -4 -6 1 6 5 8 7 5 6 4 3 4 5 6 1 1 -0 -1 0 -4 -6 -9 -11 -14 -15 -15 -16 -17 -17 -17 -17 -17 -17 -18 -18 -18 -18 -19 -18 -18 -19 -18 -19 -19 -19 -19 -19 -20 -20 -19 -19 -18 -18 -18 -19 -19 -20 -19 -19 -19 -19 -18 -18 -17
-6 -14 -13 -11 -12 -10 -12 -13 -14 -8 -8 -8 -7 -7 -7 -8 -8 -4 1 -3 1 4 -1 -9 -10 -4 -3 -3 3 8 8 3 2 1 -0 0 2 2 1 -1 -0 -1 -5 -7 -9 -12 -13 -14 -14 -15 -16 -17 -17 -17 -17 -18 -18 -17 -18 -19 -19 -18 -19 -18 -19 -19 -19 -19 -19 -20 -20 -19 -19 -19 -19 -18 -19 -20 -20 -19 -19 -18 -19 -19 -19 -19
-3 -19 -4 -13 -14 -15 -16 -12 -12 -13 -12 -8 -5 -7 -7 -6 -8 -7 -6 -6 -11 -7 -6 -6 -8 -8 -8 -10 -9 -5 2 2 -0 0 1 1 0 1 -0 -1 -2 -2 -2 -4 -6 -8 -10 -12 -13 -14 -15 -14 -14 -16 -17 -17 -18 -17 -17 -19 -19 -19 -18 -18 -19 -19 -20 -20 -19 -20 -20 -19 -19 -19 -19 -19 -20 -20 -20 -19 -19 -19 -19 -19 -19 -19
-7 -15 -16 -14 -17 -19 -19 -17 -13 -17 -16 -13 -11 -10 -9 -7 -7 -6 -8 -7 -8 -7 -9 -9 -8 -8 -7 -9 -10 -7 -3 2 2 2 1 1 1 1 -0 -1 -2 -3 -3 -3 -3 -3 -5 -7 -9 -12 -11 -12 -13 -14 -15 -17 -17 -17 -17 -18 -19 -18 -18 -18 -19 -19 -20 -19 -19 -20 -20 -20 -20 -19 -19 -20 -20 -20 -19 -18 -19 -19 -19 -19 -19 -18
-13 -9 -12 -19 -15 -19 -24 -21 -16 -12 -14 -15 -10 -11 -13 -10 -8 -11 -8 -8 -8 -7 -8 -6 -9 -8 -13 -8 -7 -8 -1 1 3 2 1 0 -0 -0 -1 -1 -1 -2 -3 -3 -3 -2 -3 -2 -5 -7 -8 -10 -11 -11 -11 -15 -17 -17 -17 -18 -19 -18 -18 -18 -19 -19 -20 -19 -19 -20 -20 -20 -20 -19 -19 -20 -20 -20 -19 -19 -19 -19 -19 -18 -18 -18
-13 -7 -14 -20 -17 -25 -20 -17 -18 -25 -28 -22 -10 -15 -15 -17 -13 -10 -12 -10 -9 -6 -11 -10 -10 -13 -11 -10 -11 -4 -6 -6 -0 3 2 1 -0 -1 -1 -0 -0 -1 -1 -2 -2 -2 -2 -1 -2 -4 -6 -7 -7 -8 -10 -12 -14 -16 -16 -17 -18 -18 -18 -18 -19 -19 -19 -19 -19 -20 -20 -20 -20 -19 -19 -20 -20 -20 -19 -19 -20 -19 -19 -19 -18 -19
-8 -10 -22 -28 -24 -30 -24 -22 -28 -29 -22 -7 -18 -17 -18 -18 -18 -12 -11 -11 -10 -9 -11 -11 -11 -15 -13 -12 -11 -12 -6 -6 -8 -5 -1 1 1 0 1 1 0 1 2 0 0 0 -0 -1 -2 -2 -5 -5 -7 -9 -10 -12 -13 -14 -15 -16 -16 -17 -17 -18 -19 -19 -19 -19 -20 -20 -20 -20 -19 -19 -20 -20 -20 -20 -20 -20 -19 -19 -19 -19 -19 -19
-13 -14 -23 -27 -27 -28 -29 -29 -32 -20 -8 -8 -17 -16 -14 -18 -19 -16 -16 -14 -13 -11 -9 -10 -9 -10 -14 -14 -12 -12 -11 -9 -10 -8 -7 -4 -1 1 1 2 2 2 2 2 1 2 2 1 -1 -3 -3 -2 -6 -8 -11 -12 -13 -14 -14 -15 -15 -16 -17 -17 -18 -19 -19 -19 -20 -20 -20 -20 -20 -19 -20 -20 -20 -20 -20 -20 -20 -20 -19 -18 -18 -19
-7 -13 -16 -24 -25 -28 -23 -30 -16 -9 -9 -14 -19 -21 -17 -20 -19 -20 -9 -14 -12 -15 -11 -10 -10 -9 -10 -13 -10 -12 -12 -15 -16 -16 -9 -7 -4 -2 -0 1 1 3 4 3 3 3 2 2 1 0 -2 -3 -6 -7 -10 -11 -12 -11 -12 -13 -15 -15 -16 -17 -18 -18 -18 -17 -19 -19 -20 -20 -20 -19 -20 -20 -20 -20 -20 -20 -20 -19 -19 -18 -19 -19
-10 -14 -12 -16 -27 -26 -29 -32 -30 -29 -29 -13 -16 -19 -17 -16 -17 -15 -12 -18 -11 -13 -12 -9 -9 -8 -10 -11 -9 -11 -14 -11 -21 -15 -12 -8 -5 -2 -1 1 1 2 1 3 1 3 3 3 -0 -2 3 -4 -6 -8 -9 -11 -11 -12 -12 -12 -13 -15 -16 -17 -17 -18 -18 -18 -18 -18 -19 -19 -19 -19 -18 -19 -19 -20 -20 -20 -19 -19 -18 -19 -19 -19
-10 -7 -9 -20 -6 -26 -31 -32 -30 -31 -15 -15 -27 -24 -19 -17 -17 -14 -13 -15 -8 -9 -11 -10 -6 -4 -5 -6 -8 -12 -13 -16 -17 -7 -5 -8 -5 -4 -2 1 2 3 4 5 5 5 3 4 1 0 -1 -2 -3 -4 -8 -9 -10 -9 -10 -11 -13 -13 -14 -15 -16 -16 -16 -17 -18 -19 -19 -19 -19 -19 -19 -19 -20 -20 -19 -20 -19 -19 -18 -19 -19 -19
-8 -18 -19 -19 -17 -21 -24 -32 -26 -25 -18 -18 -21 -22 -19 -17 -18 -20 -21 -16 -17 -10 -7 -5 -7 -8 -1 -2 -4 -6 -10 -16 -19 -4 -0 -7 -5 -3 -2 0 -0 0 3 3 3 4 3 0 -1 -1 -1 1 0 -2 -4 -6 -5 -5 -7 -10 -11 -12 -12 -13 -13 -15 -16 -17 -18 -19 -19 -19 -19 -19 -19 -19 -19 -19 -19 -19 -18 -19 -19 -19 -20 -19
-21 -23 -21 -19 -19 -12 -10 -21 -21 -15 -5 -6 -21 -18 -16 -16 -15 -20 -20 -11 -9 -12 -8 -7 -5 -3 -2 -1 -4 -9 -2 -2 2 -7 -4 -0 -3 -2 -3 -0 2 3 5 4 3 4 -1 -1 2 3 3 3 -1 -1 -2 -3 -3 -4 -4 -5 -8 -9 -8 -9 -12 -13 -15 -17 -18 -18 -18 -19 -19 -19 -19 -19 -19 -19 -18 -18 -18 -19 -19 -19 -19 -19
-22 -18 -21 -24 -23 -19 -12 -19 -20 -16 -3 -1 -15 -14 -13 -18 -26 -21 -7 -3 -4 -9 -9 -8 -5 -2 -1 -3 -4 -3 -3 -1 -1 -6 -5 -3 0 3 2 1 -1 -2 -3 -0 -0 1 -4 -2 -0 -1 -2 -2 -2 -3 -3 -3 -4 -3 -4 -6 -6 -6 -5 -9 -10 -13 -15 -16 -17 -17 -18 -18 -18 -18 -18 -18 -18 -18 -18 -18 -19 -19 -18 -17 -17 -18
-13 -18 -22 -25 -20 -18 -19 -22 -26 -27 -10 -9 -6 -14 -9 -15 -7 -4 -4 -9 -5 -9 -8 -9 -5 -3 -1 -2 0 -0 -2 -3 -2 -2 -4 -4 -3 1 1 1 -0 -1 -2 -5 -4 -0 -0 -1 -1 -1 -0 -3 -5 -5 -5 -5 -5 -4 -5 -6 -6 -4 -6 -8 -9 -10 -11 -12 -14 -16 -17 -17 -16 -17 -17 -16 -16 -17 -17 -17 -15 -15 -16 -18 -17 -17
-4 -24 -24 -20 -14 -22 -21 -24 -23 -16 -4 -4 -18 -13 -6 -4 -3 1 1 -14 -9 -8 -8 -9 -6 -2 -0 -0 -2 -0 -2 -4 -5 -4 -4 -3 -2 -3 -3 -2 -2 -2 -3 -2 -1 -1 -2 -1 -0 -0 -2 -4 -6 -6 -5 -5 -4 -5 -6 -7 -4 -5 -7 -8 -9 -10 -10 -11 -12 -14 -12 -13 -13 -15 -14 -14 -14 -15 -15 -16 -16 -17 -17 -18 -17 -18
-5 -14 -7 -20 -9 -11 -16 -13 -6 -5 -3 -1 -1 -0 -5 1 1 1 -1 0 -4 -8 -5 -7 -7 -5 -2 -3 -1 -1 -2 -1 -3 -2 -1 0 -0 1 1 0 0 0 0 0 -1 -3 -3 -1 -1 -1 -3 -5 -7 -8 -7 -6 -4 -5 -7 -5 -5 -7 -8 -9 -10 -10 -10 -11 -11 -11 -12 -12 -13 -13 -13 -14 -15 -15 -16 -15 -15 -18 -17 -17 -17 -18
-10 -10 -8 -9 -11 -4 -4 -2 1 -5 -5 -5 0 0 -4 -5 -4 -3 -1 -7 -6 -4 -4 -2 -6 -1 -2 -2 -4 -3 -2 -1 -2 -3 -2 -1 0 2 2 0 -1 -1 -1 -2 -2 -4 -3 -2 -2 -3 -3 -5 -7 -8 -8 -8 -6 -6 -5 -3 -5 -6 -8 -9 -11 -11 -11 -11 -11 -12 -12 -14 -14 -14 -14 -15 -16 -17 -17 -17 -18 -19 -19 -19 -19 -18
-4 -11 -12 -17 -1 -13 -11 1 -2 -3 0 -2 2 1 2 -1 -2 -3 -2 -2 -2 -1 -2 -4 -3 -1 0 0 0 -2 -1 -1 -2 -1 -0 0 0 0 1 1 2 1 -0 -2 -1 -3 -4 -4 -3 -4 -4 -4 -6 -8 -9 -10 -8 -6 -4 -4 -5 -7 -9 -10 -10 -12 -12 -13 -14 -14 -15 -16 -17 -18 -17 -18 -18 -18 -19 -20 -19 -19 -20 -20 -20 -19
-10 -5 -11 -7 -14 -11 -6 1 1 -3 -2 -2 -2 -1 -0 2 2 -1 -2 -0 -1 -4 -2 -1 -2 -4 -2 -2 -2 -2 -5 -2 -2 -4 -2 -2 -1 -0 -0 0 -0 -0 -0 -1 -2 -3 -3 -4 -3 -3 -3 -3 -3 -6 -8 -9 -9 -9 -7 -5 -7 -9 -11 -13 -13 -13 -12 -12 -13 -16 -16 -17 -18 -18 -18 -19 -18 -20 -20 -20 -19 -20 -20 -19 -19 -19
-7 -6 -11 -4 -9 -3 -2 -2 -3 -0 1 -0 -4 -2 -2 1 2 2 -0 -1 -1 -2 -1 -3 -2 0 -1 -1 -1 -2 -2 -3 -2 -1 -2 -1 -1 -2 -0 0 -0 -0 -1 -3 -4 -5 -4 -3 -3 -3 -2 -2 -1 -3 -7 -8 -9 -8 -10 -8 -10 -12 -13 -14 -15 -14 -12 -13 -14 -15 -17 -17 -18 -18 -18 -17 -18 -19 -18 -19 -19 -19 -19 -18 -18 -18
-9 -11 -8 -9 -16 -13 -12 -6 -2 -13 -10 0 1 3 1 -0 -2 -2 0 -1 -0 -1 1 -1 -0 -3 -1 -0 0 0 0 1 0 -1 -1 1 1 1 -0 -0 -1 -2 -3 -3 -5 -6 -6 -6 -3 -3 -3 -2 -1 -2 -5 -7 -8 -8 -9 -10 -12 -13 -13 -14 -15 -16 -16 -16 -17 -17 -18 -19 -18 -18 -20 -19 -19 -19 -18 -19 -17 -17 -19 -19 -16 -15
-8 -2 -8 -12 -10 -10 1 2 3 2 -4 -2 -4 -1 2 1 -1 -2 -2 -1 -0 2 2 1 1 -0 -2 -3 -3 -1 -0 2 3 1 0 0 0 2 0 1 -1 -2 -3 -5 -6 -8 -8 -7 -6 -5 -4 -3 -3 -4 -5 -6 -7 -8 -9 -11 -12 -14 -13 -13 -16 -17 -17 -18 -19 -19 -20 -20 -21 -21 -21 -21 -20 -21 -21 -21 -19 -14 -12 -12 -13 -12